Location: Newark
(31.5350°N, 35.0986°E)
Time: 06:07:24
(UTC+00:00)

Vanguard 1 - Pass Details

Date: 23 September 2019
Orbit: 653 x 3830 km, 34.3° (Epoch: 14 October)

Event Time Altitude Azimuth Distance (km) Brightness Sun altitude
Rises 03:36:17 0° 284° (WNW) 7,860 14.0 0.9°
Reaches altitude 10° 03:42:01 10° 285° (WNW) 6,617 13.7 2.1°
Maximum altitude 04:02:13 85° 200° (SSW) 2,453 12.2 6.4°
Drops below altitude 10° 04:13:04 10° 113° (ESE) 3,846 14.9 8.7°
Sets 04:15:29 0° 113° (ESE) 4,532 15.2 9.2°
